Tracking 23752 objects as of 23-Oct-2021
HD Live streaming from Space Station
objects crossing your sky now

FREGAT DEB

Track FREGAT DEB now!
10-day predictions


NORAD ID: 45868
Int'l Code: 2011-037CS
Perigee: 827.9 km
Apogee: 3,620.2 km
Inclination: 51.3 °
Period: 132.2 minutes
Semi major axis: 8595 km
RCS: Unknown
Launch date: July 18, 2011
Source: Commonwealth of Independent States (former USSR) (CIS)
Launch site: TYURATAM MISSILE AND SPACE COMPLEX (TTMTR)

Note: This is SATELLITE DEBRIS
aabbcc
Your satellite tracking list
Your tracking list is empty




NASA's NSSDC Master Catalog

Two Line Element Set (TLE):
1 45868U 11037CS  21296.40717361 -.00033496  00000-0 -10167+0 0  9993
2 45868  51.2607   3.3534 1624391 178.8305 181.7046 10.89511459 54010
Source of the keplerian elements: AFSPC